Location: Dackenheim
(49.5215°N, 8.1854°E)
Time: 18:17:52
(UTC+00:00)

SEEDS - Visible Passes

Search period start: 07 March 2026 00:00
Search period end: 17 March 2026 00:00
Orbit: 478 x 480 km, 97.8° (Epoch: 7 March)

Date Brightness Start Highest point End Pass type
(mag) Time Alt. Az. Time Alt. Az. Time Alt. Az.
7 Mar ? 04:39:02 10° NNE 04:42:32 52° E 04:46:02 10° S visible
8 Mar ? 04:13:15 10° NE 04:16:18 26° E 04:19:21 10° SSE visible
9 Mar ? 03:48:00 10° ENE 03:49:55 14° E 03:51:50 10° ESE visible
9 Mar ? 05:20:02 10° N 05:23:31 50° WNW 05:26:58 10° SSW visible
10 Mar ? 04:53:44 10° NNE 04:57:19 78° ESE 05:00:53 10° S visible
11 Mar ? 04:27:37 10° NNE 04:30:58 37° E 04:34:17 10° SSE visible
12 Mar ? 04:01:50 10° NE 04:04:28 19° E 04:07:05 10° SE visible
13 Mar ? 05:07:59 10° N 05:11:33 72° WNW 05:15:05 10° SSW visible
14 Mar ? 04:41:35 10° NNE 04:45:05 53° E 04:48:34 10° S visible
15 Mar ? 04:15:25 10° NE 04:18:29 26° E 04:21:30 10° SSE visible
16 Mar ? 03:49:47 10° ENE 03:51:41 14° E 03:53:35 10° ESE visible
